Weather Roundup
Issued by NWS Corpus Christi, TX

Home | Current Version | Previous Version | Text Only | Print | Product List | Glossary On
Versions: 1 2 3 4 5 6 7 8 9 10 11 12 13 14 15 16 17 18 19 20 21 22 23 24 25 26 27 28 29 30 31 32 33 34 35 36 37 38 39 40 41 42 43 44 45 46 47 48 49 50
000
ASUS44 KCRP 280910
HRRCRP

SOUTH TEXAS REGIONAL WEATHER ROUNDUP
NATIONAL WEATHER SERVICE CORPUS CHRISTI TX
400 AM CDT FRI JUL 28 2017


TXZ229>244-281000-
...CORPUS CHRISTI AREA OBSERVATIONS...

CITY           SKY/WX    TMP DP  RH WIND       PRES   REMARKS
CORPUS CHRISTI PTCLDY    78  77  96 S7        29.95S
NAS CORPUS CHR CLEAR     83  78  85 S8        29.94F HX  93
ROCKPORT       CLEAR     81  76  84 S6        29.94F
KINGSVILLE NAS CLEAR     76  76 100 S6        29.95F
ALICE          CLEAR     74  73  97 S3        29.95F
FALFURRIAS     MOCLDY    75  74  96 CALM      29.96R
$$

...VICTORIA AREA OBSERVATIONS...

CITY           SKY/WX    TMP DP  RH WIND       PRES   REMARKS
VICTORIA       CLEAR     79  75  87 SW3       29.95S
BEEVILLE       FAIR     N/A N/A N/A S5        29.95S
PLEASANTON     CLEAR     77  73  88 S6        29.96S
SAN ANTONIO    CLEAR     78  71  79 S8        29.99S
$$

...LAREDO AREA OBSERVATIONS...

CITY           SKY/WX    TMP DP  RH WIND       PRES   REMARKS
LAREDO         CLEAR     80  70  71 SE10      29.94F
COTULLA        CLEAR     77  70  79 SE9       29.94F
DEL RIO        CLEAR     83  66  56 E7        29.92F
MCALLEN        PTCLDY    80  75  84 S8        29.94F
HEBBRONVILLE   PTCLDY    73  70  91 CALM      29.97F
$$

...OTHER TEXAS OBSERVATIONS...

CITY           SKY/WX    TMP DP  RH WIND       PRES   REMARKS
BROWNSVILLE    CLEAR     78  77  96 S6        29.95S
HOUSTON        PTCLDY    80  76  87 CALM      29.96S
COL. STATION   CLEAR     78  74  87 S6        29.95F
AUSTIN         PTCLDY    77  72  84 S5        29.96S
WACO           PTCLDY    81  70  69 S9        29.93S
FORT WORTH     MOCLDY    85  70  60 SW13      29.89R
WICHITA FALLS  PTCLDY    82  62  50 S5        29.90R
LUBBOCK        CLEAR     80  55  42 SW13      30.04R
EL PASO        PTCLDY    73  64  73 NE6       30.08F
$$

...MARINE OBSERVATIONS...

STATION/POSITION TIME  SKY/WX   TEMP    WIND        PRES    VSBY  WAVE   SWELL
                                AIR SEA DIR/SP/G                  HT/PER HT/PER
                 (UTC)          (F)     (DEG/KT/KT) (MB)    (MI)  (FT/S) (FT/S)
PORT ARANSAS     0900            83 87  180/ 14/ 17 1013.7F
BUOY 90 E PORT A 0750            84 86  180/ 12/ 14 1014.3          2/ 5
BUOY 45 SE BAFFI 0750            84     180/ 12/ 14 1013.4          3/ 5
BUOY 200 E PT IS 0750            85 87  150/ 10/ 12 1015.2          2/ 5   2/ 5
BUOY 15 E GALVES 0750            85 86  220/ 12/ 14 1014.4          2/ 3
$$




USA.gov is the U.S. government's official web portal to all federal, state and local government web resources and services.